Find Starlink 32581

NORAD ID: 62184 Int'l Des: 2024-225 Owner: SPXS Country: US Constellation: starlink operational
LEOCIRCULAR

Live-Position

3D-Globus wird geladen...

Über Starlink 32581

Beschreibung wird geladen...

Nächste Überflüge

Passes for default location (London). Set your location on the main map for personalized predictions.

Höhenverlauf

Loading altitude history...

Zweizeiliger Elementsatz

1 62184U 24225X 26125.81296405 -.00005118 00000-0 -42153-3 0 9992
2 62184 70.0027 10.3368 0002644 272.2650 87.8206 14.98324003 78684
Epoch: 5. Mai 2026 • Age: 12 hours

Aktueller Status

Höhe 575.7 km
Geschwindigkeit 7.57 km/s
Subsatellitenpunkt -8.04°S, 145.65°W
Startdatum 30. Nov. 2024
Alter 1.4 years
Typ internet

Technische Details

Klassifizierung Payload
Masse 730.00 kg
Trockenmasse 700.00 kg
Gesamtmasse 730.00 kg
Länge 0.30 m
Durchmesser 4.10 m
Spannweite 29.00 m
Form Box + pan
Hersteller SPXS
Bus-Typ Starlink V2M
Phasenstatus In Orbit
Besitzer/Staat SPXS/US

Most Searched